Content
SEND FEEDBACK

Daily
Averages
Monthly
Summary
United States of America

MIDWEST CITY, OKLAHOMA


Home > North America > United States > Oklahoma
Elevation: 1291 feet     Latitude: 35 25N     Longitude: 097 23W

WEATHER
 
SELECT A DAY
Number of Records: 212,486;   Date Range: 1/1/95 - 9/29/14
 
SHARE

PRINT THIS DATA

[ ← Previous Day ]
WEATHER ALMANAC - FEBRUARY 13, 2013
[ Next Day → ]
[ °C ]   °F
Weather ElementAverageHighLow
Temperature35.3 °F54.5 °F (3:55 pm)31.6 °F (6:55 am)
Dewpoint32 °F36.9 °F (10:55 am)25.7 °F (7:55 pm)
Humidity90.9 %100 % (1:55 am)36 % (3:55 pm)
Barometer30.07 in30.10 in (8:30 am)29.99 in (3:55 pm)
Wind Speed8.1 mph13.8 mph (2:55 pm)
Weather ElementAverage
Visibility3.5 mi
Wind DirectionWSW (252.7 °)

Weather ElementTotal
Precipitation---
Heating Degree Days22 (Base 65)
Averaged from 71 records on February 13, 2013
WEATHER CONDITIONS BREAKOUT
WIND DIRECTION BREAKOUT
WEATHER BY HOUR - FEBRUARY 13, 2013
[ °C ]   °F
Local TimeTemperatureDewpointHumidityBarometerVisibilityWind DirectionWind SpeedGust SpeedPrecipitationEventsConditions
1:55 AM33.3 °F33.3 °F100 %30.08 in4.0 miNW (310°)4.6 mphOvercast
2:21 AM33.8 °F33.8 °F100 %30.08 in3.0 miWest (270°)4.6 mphOvercast
2:29 AM33.8 °F33.8 °F100 %30.08 in2.5 miWest (270°)6.9 mphOvercast
2:36 AM33.8 °F33.8 °F100 %30.07 in3.0 miWest (270°)6.9 mphOvercast
2:55 AM33.6 °F33.6 °F100 %30.07 in4.0 miWest (280°)6.9 mphOvercast
2:56 AM33.8 °F33.8 °F100 %30.08 in2.0 miWest (270°)9.2 mphOvercast
2:59 AM33.8 °F33.8 °F100 %30.08 in1.5 miWest (270°)8.1 mphOvercast
3:08 AM33.8 °F33.8 °F100 %30.08 in0.8 miWest (270°)9.2 mphMist
3:11 AM33.8 °F33.8 °F100 %30.08 in0.5 miWest (270°)8.1 mphFogFog
3:17 AM33.8 °F33.8 °F100 %30.07 in0.5 miWest (280°)6.9 mphFogFog
3:18 AM33.8 °F33.8 °F100 %30.07 in0.5 miWest (280°)6.9 mphFogFog
3:22 AM33.8 °F33.8 °F100 %30.08 in0.8 miWNW (290°)9.2 mphMist
3:34 AM32.0 °F32.0 °F100 %30.07 in0.8 miWest (280°)11.5 mphMist
3:39 AM32.0 °F32.0 °F100 %30.07 in1.0 miWNW (290°)11.5 mphMist
3:44 AM32.0 °F32.0 °F100 %30.07 in1.0 miWest (280°)12.7 mphMist
3:55 AM32.4 °F32.4 °F100 %30.07 in1.0 miWest (280°)11.5 mphMist
3:58 AM32.0 °F32.0 °F100 %30.07 in0.8 miWest (280°)11.5 mphMist
3:59 AM32.0 °F32.0 °F100 %30.07 in0.5 miWNW (290°)10.4 mphFogLight Freezing Fog
4:09 AM32.0 °F32.0 °F100 %30.07 in0.5 miWest (270°)5.8 mphFogLight Freezing Fog
4:36 AM32.0 °F32.0 °F100 %30.07 in0.5 miWest (260°)9.2 mphFogLight Freezing Fog
4:40 AM32.0 °F32.0 °F100 %30.07 in0.8 miWest (260°)9.2 mphMist
4:44 AM32.0 °F32.0 °F100 %30.07 in0.8 miWest (260°)9.2 mphMist
4:55 AM32.9 °F32.9 °F100 %30.07 in1.0 miWest (260°)9.2 mphMist
4:56 AM32.0 °F32.0 °F100 %30.07 in1.0 miWest (270°)10.4 mphMist
5:07 AM32.0 °F32.0 °F100 %30.07 in1.0 miWest (260°)6.9 mphMist
5:13 AM32.0 °F32.0 °F100 %30.07 in1.2 miWest (280°)9.2 mphOvercast
5:18 AM32.0 °F32.0 °F100 %30.07 in1.5 miWest (270°)6.9 mphOvercast
5:28 AM32.0 °F32.0 °F100 %30.07 in1.8 miWest (270°)9.2 mphOvercast
5:38 AM32.0 °F32.0 °F100 %30.07 in1.2 miWSW (250°)9.2 mphOvercast
5:41 AM32.0 °F32.0 °F100 %30.07 in1.0 miWSW (250°)9.2 mphMist
5:46 AM32.0 °F32.0 °F100 %30.07 in1.2 miWest (260°)6.9 mphOvercast
5:55 AM32.0 °F32.0 °F100 %30.07 in1.5 miWSW (240°)8.1 mphOvercast
5:59 AM32.0 °F32.0 °F100 %30.07 in1.0 miWSW (250°)6.9 mphOvercast
6:13 AM32.0 °F32.0 °F100 %30.07 in1.0 miWSW (240°)5.8 mphMist
6:32 AM32.0 °F32.0 °F100 %30.08 in1.0 miSW (220°)6.9 mphMist
6:38 AM32.0 °F32.0 °F100 %30.08 in1.0 miSW (230°)5.8 mphMist
6:55 AM31.6 °F31.6 °F100 %30.08 in1.0 miWSW (240°)5.8 mphMist
6:59 AM32.0 °F32.0 °F100 %30.08 in2.5 miSW (220°)6.9 mphOvercast
7:03 AM32.0 °F32.0 °F100 %30.08 in0.8 miSW (230°)5.8 mphOvercast
7:12 AM32.0 °F32.0 °F100 %30.08 in1.8 miSW (230°)8.1 mphOvercast
7:18 AM32.0 °F32.0 °F100 %30.08 in1.8 miSW (220°)6.9 mphOvercast
7:21 AM32.0 °F32.0 °F100 %30.08 in0.5 miSW (220°)8.1 mphOvercast
7:22 AM32.0 °F32.0 °F100 %30.08 in1.2 miSW (230°)8.1 mphOvercast
7:25 AM32.0 °F32.0 °F100 %30.08 in0.8 miSW (230°)8.1 mphMist
7:47 AM32.0 °F32.0 °F100 %30.09 in1.2 miWSW (240°)8.1 mphOvercast
7:55 AM31.8 °F31.8 °F100 %30.09 in1.2 miWSW (250°)8.1 mphOvercast
8:00 AM32.0 °F32.0 °F100 %30.09 in1.0 miWSW (240°)6.9 mphMist
8:04 AM32.0 °F32.0 °F100 %30.09 in1.2 miSW (230°)8.1 mphOvercast
8:18 AM32.0 °F32.0 °F100 %30.09 in3.0 miWSW (240°)6.9 mphOvercast
8:19 AM32.0 °F32.0 °F100 %30.09 in3.0 miSW (230°)8.1 mphOvercast
8:30 AM32.0 °F32.0 °F100 %30.10 in2.5 miSW (230°)8.1 mphOvercast
8:38 AM32.0 °F32.0 °F100 %30.10 in3.0 miWSW (240°)9.2 mphOvercast
8:43 AM32.0 °F32.0 °F100 %30.10 in4.0 miWSW (240°)9.2 mphOvercast
8:55 AM32.0 °F32.0 °F100 %30.10 in6.0 miSW (230°)8.1 mphOvercast
9:22 AM33.8 °F33.8 °F100 %30.09 in9.0 miSW (220°)8.1 mphOvercast
9:55 AM34.3 °F34.3 °F100 %30.09 in9.0 miSW (230°)8.1 mphMostly Cloudy
10:18 AM35.6 °F35.6 °F100 %30.09 in10.0 miWSW (250°)8.1 mphScattered Clouds
10:55 AM38.3 °F36.9 °F95 %30.10 in10.0 miWest (280°)6.9 mphScattered Clouds
11:55 AM43.2 °F36.7 °F78 %30.09 in10.0 miSW (230°)6.9 mphClear
12:55 PM47.7 °F36.5 °F65 %30.05 in10.0 miWSW (240°)10.4 mphClear
1:55 PM51.1 °F34.9 °F54 %30.02 in10.0 miWSW (250°)9.2 mphClear
2:55 PM53.4 °F30.9 °F42 %30.00 in10.0 miWSW (240°)13.8 mphClear
3:55 PM54.5 °F27.7 °F36 %29.99 in10.0 miWSW (250°)11.5 mphClear
4:55 PM53.6 °F27.1 °F36 %29.99 in10.0 miWSW (250°)10.4 mphClear
5:55 PM51.8 °F26.4 °F37 %29.99 in10.0 miWest (260°)9.2 mphClear
6:55 PM47.3 °F26.1 °F44 %29.99 in10.0 miWSW (240°)5.8 mphClear
7:55 PM43.2 °F25.7 °F50 %30.00 in10.0 miSW (230°)5.8 mphClear
8:55 PM43.3 °F26.1 °F51 %30.01 in10.0 miSW (220°)5.8 mphClear
9:55 PM42.6 °F26.6 °F53 %30.01 in10.0 miWest (260°)5.8 mphClear
10:55 PM42.1 °F26.8 °F55 %30.02 in10.0 miWSW (250°)5.8 mphClear
11:55 PM40.1 °F27.0 °F59 %30.02 in10.0 miSW (220°)5.8 mphClear
Hourly data recorded from KTIK, located miles away from Midwest City, Oklahoma







STORIES FROM OUR PARTNERS